Location: Helsinki
(60.1699°N, 24.9384°E)
Time: 20:57:11
(UTC+02:00)

Transit 2A Rocket - Pass Details

Date: 21 September 2023
Orbit: 593 x 903 km, 66.7° (Epoch: 29 November)

Event Time Altitude Azimuth Distance (km) Brightness Sun altitude
Rises 20:05:23 0° 266° (W) 3,230 10.1 -5.9°
Reaches altitude 10° 20:07:59 10° 273° (W) 2,252 9.2 -6.2°
Maximum altitude 20:12:51 43° 345° (NNW) 972 5.8 -6.8°
Drops below altitude 10° 20:17:20 10° 58° (ENE) 2,072 6.9 -7.3°
Enters shadow 20:19:08 - 64° (ENE) 2,749 7.4 -7.6°
Sets 20:19:38 0° 65° (ENE) 2,944 - -7.6°
